If you wish to contribute or participate in the discussions about articles you are invited to join SKYbrary as a registered user

 Actions

A Coruña Airport

From SKYbrary Wiki

LECO
Airport
ICAO: LECO – IATA: LCG
Summary
Name A Coruña Airport
Region Europe
Territory Spain ES.gif
Location Alvedro, Galicia
Serving La Coruna
Elevation 99.365 m
326 ft
326 ft99.365 m
Type medium airport
Coordinates 43° 18' 7.42" N, 8° 22' 38.12" W
Runways
Designator Length Width Surface ROPS
4/22 1940 m6,364.829 ft
45 m147.638 ft
ASP no/no


METAR
Observation LECO 260000Z AUTO 18003KT CAVOK 17/16 Q1016
Station La Coruna / Alvedro
Date/Time 26 June 2019 00:00:00
Wind direction 180°
Wind speed 03 kts
Lowest cloud amount clouds and visibility OK
Temperature 17°C
Dew point 16°C
Humidity 93%
QNH 1016 hPa
Weather condition n/a

A Coruña Airport, formerly known as Alvedro Airport, is the airport serving the Galician city of A Coruña in northwestern Spain.

Climatology

humid oceanic climate with drier summers, (Köppen climate classification Cfb), heavily moderated by the Atlantic Ocean. Autumn and winter are often unsettled and unpredictable, with strong winds and abundant rainfall coming from Atlantic depressions, and it is often overcast.

Maps

Terrain

Loading map...

Airport Layout

Loading map...


Accidents & Serious Incidents at or in vicinity of LECO

None on SKYbrary